Location: Newark
(43.4000°N, 45.7167°E)
Time: 10:03:23
(UTC+00:00)

Envisat - Visible Passes

Search period start: 23 October 2019 00:00
Search period end: 02 November 2019 00:00
Orbit: 764 x 766 km, 98.1° (Epoch: 23 October)

Date Brightness Start Highest point End Pass type
(mag) Time Alt. Az. Time Alt. Az. Time Alt. Az.
23 Oct 6.1 02:45:16 10° NE 02:48:42 18° E 02:52:08 10° SE visible
23 Oct 4.5 15:39:02 10° SSW 15:43:45 38° W 15:48:30 10° NNW visible
24 Oct 3.1 15:01:48 10° SSE 15:06:54 84° W 15:12:00 10° NNW visible
25 Oct 3.3 14:25:24 10° SE 14:30:13 45° ENE 14:35:03 10° N visible
25 Oct 5.4 16:05:30 10° SW 16:09:26 23° W 16:13:25 10° NW visible
26 Oct 6.3 02:34:38 10° ENE 02:37:19 14° E 02:39:59 10° ESE visible
26 Oct 4.0 15:27:32 10° S 15:32:26 49° W 15:37:22 10° NNW visible
27 Oct 2.9 14:50:34 10° SSE 14:55:38 78° ENE 15:00:44 10° N visible
27 Oct 6.1 16:32:58 10° WSW 16:35:14 13° W 16:37:31 10° WNW visible
28 Oct 3.5 14:14:25 10° SE 14:19:01 36° ENE 14:23:39 10° N visible
28 Oct 5.0 15:53:45 10° SSW 15:58:05 28° W 16:02:27 10° NW visible
29 Oct 6.6 02:24:34 10° ENE 02:25:54 11° E 02:27:14 10° ESE visible
29 Oct 3.5 15:16:08 10° S 15:21:08 62° W 15:26:12 10° NNW visible
30 Oct 3.0 14:39:23 10° SSE 14:44:23 62° ENE 14:49:25 10° N visible
30 Oct 5.8 16:20:40 10° SW 16:23:50 16° W 16:27:01 10° NW visible
31 Oct 6.0 02:48:03 10° NE 02:51:43 20° E 02:55:22 10° SE visible
31 Oct 4.6 15:42:07 10° SSW 15:46:45 35° W 15:51:24 10° NNW visible
01 Nov 3.1 15:04:47 10° S 15:09:51 78° WSW 15:14:58 10° NNW visible
